Asheville, NC

3:25 PM EDT on July 22, 2017 (GMT -0400)
Asheville Regional

Weather History for KAVL - November, 2008

Change the Weather History Date:

Saturday, November 15, 2008

  Actual Average Record
Temperature  
Mean Temperature 50 °F 48 °F  
Max Temperature 61 °F 59 °F 77 °F (1897)
Min Temperature 38 °F 36 °F 13 °F (1969)
Degree Days  
Heating Degree Days 15 18  
Month to date heating degree days 224 232  
Since 1 July heating degree days 590 567  
Cooling Degree Days 0 0  
Month to date cooling degree days 0 0  
Year to date cooling degree days 875 862  
Moisture  
Dew Point 47 °F    
Average Humidity 73    
Maximum Humidity 100    
Minimum Humidity 46    
Precipitation  
Precipitation 0.13 in 0.11 in 2.08 in (1989)
Month to date precipitation 1.09 1.63  
Year to date precipitation 30.37 39.96  
Snow  
Snow 0.00 in 0.00 in T in (2007)
Month to date snowfall 0.0 0.0  
Since 1 July snowfall T 0.0  
Since 1 September snowfall T 0.0  
Snow Depth -    
Sea Level Pressure  
Sea Level Pressure 29.68 in    
Wind  
Wind Speed 11 mph (NW)    
Max Wind Speed 24 mph    
Max Gust Speed 33 mph    
Visibility 9 miles    
Events Rain    
T = Trace of Precipitation, MM = Missing Value Source: NWS Daily Summary

Daily Weather History Graph

Daily Weather History Graph

Search for Another Location

Airport or City:

Trip Planner

Search our weather history database for the weather conditions in past years. The results will help you decide how hot, cold, wet, or windy it might be!

Date:

Astronomy

Nov. 15, 2008 Rise Set
Actual Time 7:05 AM EST 5:23 PM EST
Civil Twilight 6:38 AM EST 5:50 PM EST
Nautical Twilight 6:08 AM EST 6:21 PM EST
Astronomical Twilight 5:37 AM EST 6:51 PM EST
Moon 7:37 PM EST (11/15) 9:59 AM EST (11/15)
Length of Visible Light 11h 11m
Length of Day
10h 17m
Waning Gibbous, 91% of the Moon is Illuminated
Nov 15
Waning Gibbous
Nov 19
Last Quarter
Nov 27
New
Dec 5
First Quarter
Dec 12
Full

Hourly Weather History & Observations

Time (EST) Temp. Windchill Dew Point Humidity Pressure Visibility Wind Dir Wind Speed Gust Speed Precip Events Conditions
12:11 AM 55.4 °F - 55.4 °F 100% 29.76 in 1.8 mi SSE 8.1 mph - N/A   Overcast
12:31 AM 55.4 °F - 55.4 °F 100% 29.74 in 3.0 mi SE 8.1 mph - N/A   Overcast
12:54 AM 55.9 °F - 55.9 °F 100% 29.70 in 4.0 mi SE 5.8 mph - N/A   Overcast
1:45 AM 57.2 °F - 57.2 °F 100% 29.70 in 10.0 mi Calm Calm - 0.00 in   Overcast
1:54 AM 57.0 °F - 57.0 °F 100% 29.65 in 10.0 mi Calm Calm - 0.00 in   Overcast
2:54 AM 57.9 °F - 57.9 °F 100% 29.61 in 7.0 mi SSW 9.2 mph - 0.02 in Rain Light Rain
3:03 AM 59.0 °F - 57.2 °F 94% 29.65 in 10.0 mi South 8.1 mph - 0.00 in   Overcast
3:54 AM 60.1 °F - 57.9 °F 93% 29.58 in 10.0 mi South 12.7 mph - 0.00 in Rain Light Rain
4:18 AM 60.8 °F - 57.2 °F 88% 29.63 in 10.0 mi South 9.2 mph - 0.00 in   Overcast
4:27 AM 60.8 °F - 57.2 °F 88% 29.63 in 10.0 mi South 8.1 mph - 0.00 in   Overcast
4:54 AM 61.0 °F - 57.0 °F 87% 29.58 in 10.0 mi South 10.4 mph 23.0 mph 0.00 in   Overcast
5:54 AM 60.1 °F - 57.0 °F 90% 29.55 in 8.0 mi Variable 3.5 mph - 0.02 in Rain Light Rain
6:54 AM 60.1 °F - 57.9 °F 93% 29.53 in 6.0 mi South 5.8 mph - 0.05 in Rain Rain
7:54 AM 59.0 °F - 57.0 °F 93% 29.57 in 10.0 mi North 12.7 mph 16.1 mph 0.04 in Rain Light Rain
8:02 AM 55.4 °F - 53.6 °F 94% 29.62 in 10.0 mi North 15.0 mph - 0.00 in Rain Light Rain
8:14 AM 55.4 °F - 53.6 °F 94% 29.62 in 10.0 mi North 8.1 mph - 0.00 in Rain Light Rain
8:54 AM 55.0 °F - 52.0 °F 89% 29.57 in 10.0 mi Calm Calm - 0.00 in   Overcast
9:01 AM 55.4 °F - 53.6 °F 94% 29.61 in 10.0 mi North 3.5 mph - N/A   Scattered Clouds
9:44 AM 55.4 °F - 51.8 °F 88% 29.64 in 10.0 mi NNW 15.0 mph - N/A   Overcast
9:54 AM 55.0 °F - 51.1 °F 86% 29.60 in 10.0 mi North 6.9 mph - N/A   Overcast
10:06 AM 55.4 °F - 51.8 °F 88% 29.63 in 10.0 mi Variable 5.8 mph - N/A   Scattered Clouds
10:54 AM 57.9 °F - 50.0 °F 75% 29.60 in 10.0 mi North 6.9 mph - N/A   Scattered Clouds
11:54 AM 57.9 °F - 46.0 °F 65% 29.60 in 10.0 mi NNW 12.7 mph - N/A   Overcast
12:54 PM 60.1 °F - 39.0 °F 46% 29.60 in 10.0 mi WNW 11.5 mph 21.9 mph N/A   Mostly Cloudy
1:54 PM 55.9 °F - 39.0 °F 53% 29.61 in 10.0 mi WNW 15.0 mph 20.7 mph N/A   Mostly Cloudy
2:54 PM 53.1 °F - 37.0 °F 55% 29.64 in 10.0 mi NNW 17.3 mph 23.0 mph N/A   Scattered Clouds
3:54 PM 48.9 °F - 35.1 °F 59% 29.68 in 10.0 mi NW 15.0 mph 20.7 mph 0.00 in   Partly Cloudy
4:54 PM 45.0 °F 37.1 °F 36.0 °F 71% 29.73 in 9.0 mi NW 19.6 mph 31.1 mph 0.00 in Rain Light Rain
5:54 PM 44.1 °F 39.0 °F 32.0 °F 63% 29.74 in 10.0 mi NNW 9.2 mph - 0.00 in   Clear
6:54 PM 42.1 °F 35.2 °F 35.1 °F 76% 29.77 in 10.0 mi North 12.7 mph 21.9 mph 0.00 in Rain Light Rain
7:54 PM 39.9 °F 32.9 °F 35.1 °F 83% 29.80 in 10.0 mi NNW 11.5 mph - 0.00 in   Mostly Cloudy
8:54 PM 39.0 °F 31.0 °F 35.1 °F 86% 29.82 in 10.0 mi NNW 13.8 mph - 0.00 in Rain Light Rain
9:54 PM 39.0 °F 31.8 °F 34.0 °F 82% 29.84 in 10.0 mi NW 11.5 mph - 0.00 in   Mostly Cloudy
10:24 PM 39.2 °F 30.2 °F 33.8 °F 81% 29.85 in 10.0 mi NNW 17.3 mph 21.9 mph 0.00 in Rain Light Rain
10:35 PM 37.4 °F 28.5 °F 33.8 °F 87% 29.86 in 10.0 mi NW 15.0 mph 24.2 mph 0.00 in Rain Light Rain
10:54 PM 37.9 °F 28.5 °F 33.1 °F 83% 29.84 in 10.0 mi NW 17.3 mph 23.0 mph 0.00 in   Overcast
11:54 PM 37.9 °F 28.2 °F 32.0 °F 79% 29.85 in 10.0 mi NNW 18.4 mph 26.5 mph N/A   Overcast